• In Italy
  • List of Countries
  • For 7 days
  • Water Temperature
  • Satellite Maps
  • Weather Map
  • Weather Widgets
  • user-avatar
    Login

    Hourly Weather Abano Terme

    Today, 24 September, Monday

    Time Temperature Precipitation Wind Pressure Humidity
    00:00 +23°C° 0 mm 2 mps 757 mmHg 84%
    01:00 +23°C° 0 mm 2 mps 756 mmHg 87%
    02:00 +22°C° 0.1 mm 3 mps 756 mmHg 85%
    03:00 +22°C° 0.1 mm 3 mps 756 mmHg 84%
    04:00 +22°C° 0.1 mm 3 mps 757 mmHg 82%
    05:00 +22°C° 0 mm 3 mps 757 mmHg 82%
    06:00 +21°C° 0 mm 3 mps 758 mmHg 81%
    07:00 +22°C° 0 mm 3 mps 758 mmHg 80%
    08:00 +23°C° 0.5 mm 4 mps 759 mmHg 70%
    09:00 +25°C° 0.5 mm 5 mps 760 mmHg 61%
    10:00 +27°C° 0.5 mm 7 mps 761 mmHg 51%
    11:00 +26°C° 0.1 mm 7 mps 762 mmHg 51%
    12:00 +24°C° 0.1 mm 8 mps 763 mmHg 51%
    13:00 +23°C° 0.1 mm 9 mps 764 mmHg 51%
    14:00 +22°C° 0 mm 8 mps 765 mmHg 51%
    15:00 +22°C° 0 mm 7 mps 765 mmHg 52%
    16:00 +21°C° 0 mm 6 mps 766 mmHg 53%
    17:00 +20°C° 0 mm 6 mps 767 mmHg 54%
    18:00 +19°C° 0 mm 5 mps 767 mmHg 55%
    19:00 +19°C° 0 mm 4 mps 768 mmHg 55%
    20:00 +18°C° 0 mm 4 mps 769 mmHg 55%
    21:00 +18°C° 0 mm 4 mps 770 mmHg 54%
    22:00 +18°C° 0 mm 4 mps 771 mmHg 53%
    23:00 +17°C° 0 mm 4 mps 771 mmHg 52%

    Tomorrow, 25 September, Tuesday

    Time Temperature Precipitation Wind Pressure Humidity
    00:00 +17°C° 0 mm 4 mps 771 mmHg 52%
    01:00 +17°C° 0 mm 4 mps 772 mmHg 51%
    02:00 +15°C° 0 mm 4 mps 772 mmHg 52%
    03:00 +14°C° 0 mm 4 mps 772 mmHg 53%
    04:00 +14°C° 0 mm 4 mps 772 mmHg 53%
    05:00 +14°C° 0 mm 4 mps 772 mmHg 53%
    06:00 +14°C° 0 mm 4 mps 772 mmHg 54%
    07:00 +13°C° 0 mm 4 mps 772 mmHg 54%
    08:00 +15°C° 0 mm 4 mps 772 mmHg 50%
    09:00 +18°C° 0 mm 4 mps 772 mmHg 46%
    10:00 +19°C° 0 mm 4 mps 772 mmHg 42%
    11:00 +20°C° 0 mm 4 mps 772 mmHg 41%
    12:00 +20°C° 0 mm 4 mps 772 mmHg 40%
    13:00 +21°C° 0 mm 4 mps 772 mmHg 39%
    14:00 +20°C° 0 mm 4 mps 772 mmHg 39%
    15:00 +20°C° 0 mm 4 mps 772 mmHg 39%
    16:00 +20°C° 0 mm 3 mps 772 mmHg 39%
    17:00 +19°C° 0 mm 3 mps 772 mmHg 42%
    18:00 +17°C° 0 mm 3 mps 773 mmHg 45%
    19:00 +16°C° 0 mm 3 mps 773 mmHg 49%
    20:00 +16°C° 0 mm 3 mps 774 mmHg 49%
    21:00 +14°C° 0 mm 3 mps 775 mmHg 50%
    22:00 +14°C° 0 mm 4 mps 775 mmHg 51%
    23:00 +14°C° 0 mm 4 mps 776 mmHg 51%

    Day after tomorrow, 26 September, Wednesday

    Time Temperature Precipitation Wind Pressure Humidity
    00:00 +13°C° 0 mm 4 mps 776 mmHg 51%
    01:00 +13°C° 0 mm 4 mps 776 mmHg 52%
    02:00 +13°C° 0 mm 4 mps 776 mmHg 52%
    03:00 +12°C° 0 mm 4 mps 776 mmHg 53%
    04:00 +12°C° 0 mm 3 mps 776 mmHg 54%
    05:00 +12°C° 0 mm 3 mps 776 mmHg 54%
    06:00 +12°C° 0 mm 3 mps 776 mmHg 55%
    07:00 +12°C° 0 mm 3 mps 776 mmHg 55%
    08:00 +14°C° 0 mm 3 mps 776 mmHg 51%
    09:00 +16°C° 0 mm 3 mps 776 mmHg 48%
    10:00 +18°C° 0 mm 3 mps 775 mmHg 44%
    11:00 +19°C° 0 mm 3 mps 775 mmHg 42%
    12:00 +20°C° 0 mm 2 mps 775 mmHg 40%
    13:00 +21°C° 0 mm 2 mps 775 mmHg 39%
    14:00 +21°C° 0 mm 2 mps 774 mmHg 39%
    15:00 +21°C° 0 mm 2 mps 774 mmHg 39%
    16:00 +22°C° 0 mm 1 mps 773 mmHg 39%
    17:00 +21°C° 0 mm 1 mps 773 mmHg 44%
    18:00 +19°C° 0 mm 1 mps 774 mmHg 49%
    19:00 +16°C° 0 mm 1 mps 774 mmHg 53%
    20:00 +16°C° 0 mm 1 mps 774 mmHg 55%
    21:00 +15°C° 0 mm 1 mps 774 mmHg 56%
    22:00 +15°C° 0 mm 1 mps 774 mmHg 57%
    23:00 +15°C° 0 mm 1 mps 774 mmHg 58%

    27 September, Thursday

    Time Temperature Precipitation Wind Pressure Humidity
    00:00 +14°C° 0 mm 1 mps 774 mmHg 59%
    01:00 +14°C° 0 mm 1 mps 774 mmHg 60%
    02:00 +14°C° 0 mm 1 mps 774 mmHg 61%
    03:00 +14°C° 0 mm 1 mps 773 mmHg 62%
    04:00 +13°C° 0 mm 1 mps 773 mmHg 62%
    05:00 +14°C° 0 mm 1 mps 773 mmHg 62%
    06:00 +14°C° 0 mm 1 mps 772 mmHg 62%
    07:00 +14°C° 0 mm 1 mps 772 mmHg 62%
    08:00 +16°C° 0 mm 1 mps 772 mmHg 56%
    09:00 +20°C° 0 mm 1 mps 772 mmHg 49%
    10:00 +22°C° 0 mm 1 mps 771 mmHg 43%
    11:00 +23°C° 0 mm 1 mps 771 mmHg 40%
    12:00 +25°C° 0 mm 1 mps 771 mmHg 37%
    13:00 +26°C° 0 mm 1 mps 770 mmHg 34%
    14:00 +26°C° 0 mm 1 mps 770 mmHg 34%
    15:00 +26°C° 0 mm 1 mps 769 mmHg 34%
    16:00 +27°C° 0 mm 1 mps 769 mmHg 34%
    17:00 +25°C° 0 mm 1 mps 769 mmHg 38%
    18:00 +21°C° 0 mm 0 mps 769 mmHg 43%
    19:00 +19°C° 0 mm 0 mps 769 mmHg 48%
    20:00 +20°C° 0 mm 1 mps 768 mmHg 50%
    21:00 +20°C° 0 mm 1 mps 768 mmHg 52%
    22:00 +19°C° 0 mm 1 mps 768 mmHg 53%
    23:00 +19°C° 0 mm 1 mps 768 mmHg 55%

    28 September, Friday

    Time Temperature Precipitation Wind Pressure Humidity
    00:00 +18°C° 0 mm 1 mps 767 mmHg 56%
    01:00 +17°C° 0 mm 2 mps 767 mmHg 58%
    02:00 +17°C° 0 mm 2 mps 766 mmHg 59%
    03:00 +16°C° 0 mm 2 mps 766 mmHg 60%
    04:00 +16°C° 0 mm 2 mps 765 mmHg 62%
    05:00 +16°C° 0 mm 2 mps 765 mmHg 62%
    06:00 +16°C° 0 mm 2 mps 765 mmHg 62%
    07:00 +16°C° 0 mm 1 mps 765 mmHg 62%
    08:00 +20°C° 0 mm 1 mps 764 mmHg 55%
    09:00 +22°C° 0 mm 1 mps 764 mmHg 48%
    10:00 +25°C° 0 mm 1 mps 764 mmHg 40%
    11:00 +26°C° 0 mm 1 mps 763 mmHg 37%
    12:00 +27°C° 0 mm 1 mps 763 mmHg 33%
    13:00 +29°C° 0 mm 1 mps 762 mmHg 29%
    14:00 +29°C° 0 mm 1 mps 762 mmHg 28%
    15:00 +29°C° 0 mm 1 mps 761 mmHg 28%
    16:00 +29°C° 0 mm 1 mps 761 mmHg 28%
    17:00 +27°C° 0 mm 1 mps 761 mmHg 32%
    18:00 +25°C° 0 mm 1 mps 761 mmHg 36%
    19:00 +21°C° 0 mm 0 mps 762 mmHg 40%
    20:00 +22°C° 0 mm 1 mps 762 mmHg 42%
    21:00 +21°C° 0 mm 1 mps 762 mmHg 44%
    22:00 +21°C° 0 mm 1 mps 762 mmHg 46%
    23:00 +20°C° 0 mm 2 mps 762 mmHg 48%

    29 September, Saturday

    Time Temperature Precipitation Wind Pressure Humidity
    00:00 +19°C° 0 mm 2 mps 762 mmHg 50%
    01:00 +19°C° 0 mm 2 mps 761 mmHg 52%
    02:00 +18°C° 0 mm 2 mps 761 mmHg 54%
    03:00 +18°C° 0 mm 2 mps 761 mmHg 56%
    04:00 +18°C° 0 mm 2 mps 761 mmHg 58%
    05:00 +18°C° 0 mm 2 mps 761 mmHg 59%
    06:00 +18°C° 0 mm 2 mps 761 mmHg 59%
    07:00 +18°C° 0 mm 2 mps 761 mmHg 60%
    08:00 +20°C° 0 mm 2 mps 761 mmHg 53%
    09:00 +23°C° 0 mm 2 mps 761 mmHg 46%
    10:00 +26°C° 0 mm 2 mps 761 mmHg 40%
    11:00 +27°C° 0 mm 2 mps 761 mmHg 37%
    12:00 +28°C° 0 mm 2 mps 761 mmHg 34%
    13:00 +29°C° 0 mm 3 mps 761 mmHg 31%
    14:00 +29°C° 0 mm 3 mps 761 mmHg 32%
    15:00 +28°C° 0 mm 3 mps 761 mmHg 32%
    16:00 +28°C° 0 mm 3 mps 761 mmHg 33%
    17:00 +26°C° 0 mm 2 mps 761 mmHg 39%
    18:00 +24°C° 0 mm 2 mps 762 mmHg 44%
    19:00 +21°C° 0 mm 2 mps 762 mmHg 49%
    20:00 +21°C° 0 mm 2 mps 763 mmHg 52%
    21:00 +20°C° 0 mm 2 mps 763 mmHg 54%
    22:00 +20°C° 0 mm 3 mps 764 mmHg 56%
    23:00 +19°C° 0 mm 3 mps 764 mmHg 58%
    Show more